STARLINK-34866 (65189 NORAD) Tracking and Keplerian Element Data

This shows tracking and keplerian element data for the satellite.

Feedback or suggestion? Click here.




ElementValue
Catalog65189
NameSTARLINK-34866
Epoch Orbit2068
Epoch Day354.21789357
Epoch Year2025
RAAN224.3473
Inclination97.6007
Eccentricity0.0003188
Argument of Perigee80.6504
Mean Anonmoly279.5083
Mean Motion15.05669477
Decay Rate5.407E-05
L11 65189U 25175R 25354.21789357 .00005407 00000+0 37844-3 0 9994
L22 65189 97.6007 224.3473 0003188 80.6504 279.5083 15.05669477 20688



Live tracking and technical data element details for STARLINK-34866 (NORAD 65189). STARLINK-34866 can be tracked NOW for your location showing map with azimuth and elevation plus other details from your city location.







IsCatalogInMostPopularTable: catalog: 65189, numindb: 5
Update: records affected: 1



GetName: 65189 STARLINK-34866

Hit Count: updated at: Tue, 10 Feb 2026 03:45:23 GMT